SCP
0 0 0 0 0 0 0 0 0 0 0 0 0 0 0 0 -0 -0 0 0 0 0 0 0 0 0 0 0 0 0 0 0 0 0 0 0 0 0 0 0 0 0 0 0
0 0 0 0 0 0 0 0 0 0 0 0 0 0 0 -0 -0 0 0 0 0 0 0 0 0 0 0 0 0 0 0 0 0 0 0 0 0 0 0 0 0 0 0 0
0 0 0 0 0 0 0 0 0 0 0 0 0 0 0 0 0 0 0 0 0 0 0 0 0 0 0 0 0 0 0 0 0 0 0 0 0 0 0 0 0 0 0 0
0 0 0 0 0 0 0 0 0 0 0 0 0 0 0 0 0 0 0 0 0 0 0 0 0 0 0 0 0 0 0 0 0 0 0 0 0 0 0 0 0 0 0 0
0 0 0 0 0 0 0 0 0 0 0 0 0 0 0 0 0 0 0 0 0 0 0 0 0 0 0 0 0 0 0 0 0 0 0 0 0 0 0 0 0 0 0 0
0 0 0 0 0 0 0 0 0 0 0 0 0 0 0 0 0 0 0 0 0 0 0 0 0 0 0 0 0 0 0 0 0 0 0 0 0 0 0 0 0 0 0 0
0 0 0 0 0 0 0 0 0 0 0 0 0 0 0 0 0 0 0 0 0 0 0 0 0 0 0 0 -0 -0 -0 0 0 0 -0 0 0 0 0 0 0 0 0 0
0 0 0 0 0 0 0 0 0 0 0 0 0 0 0 0 0 0 0 0 0 0 0 0 0 0 -0 -0 -0 -0 -0 -0 -0 -0 -0 0 0 0 0 0 0 0 0 0
0 0 0 0 0 0 0 0 0 0 0 0 -0 0 0 0 0 0 0 0 0 0 -0 0 0 0 -0 -0 -0 -0 -0 -0 -0 -0 -0 0 0 0 0 0 0 0 0 0
0 0 0 0 0 0 0 0 0 0 0 0 0 0 0 0 0 0 0 0 0 0 -0 -0 -0 -0 -0 -0 -0 -0 -0 -0 -0 -0 -0 -0 -0 -0 -0 0 0 0 0 0
0 0 0 0 0 0 0 0 0 0 0 0 0 0 0 0 0 0 0 0 -0 0 0 0 0 -0 -0 -0 -0 0 0 0 0 -0 -0 -0 -0 0 0 -0 0 0 0 0
0 0 0 0 0 0 0 0 0 0 0 0 0 0 0 0 0 0 -0 0 0 0 0 -0 -0 -0 0 0 0 0 0 0 0 0 0 0 0 0 0 0 0 0 0 0
0 0 0 0 0 0 0 0 0 0 0 0 0 0 0 0 0 0 0 0 0 -0 -0 -0 0 0 0 0 0 0 0 0 0 0 0 0 0 -0 -0 -0 -0 -0 -0 -0
0 0 0 0 0 0 0 0 0 0 0 0 0 0 0 0 0 0 0 -0 -0 -0 -0 0 0 0 0 0 0 0 0 0 0 0 0 0 0 -0 -0 -0 -0 -0 -0 -0
0 0 0 0 0 0 0 0 0 0 0 0 0 0 0 0 0 0 -0 -0 -0 -0 -0 -0 0 0 -0 -0 -0 -0 -0 0 0 0 0 0 0 0 -0 -0 -0 -0 -0 -0
0 0 0 0 0 0 0 0 0 0 0 0 0 0 0 0 0 0 0 0 0 0 0 -0 -0 -0 -0 -0 -0 -0 -0 -0 0 0 0 0 0 0 0 0 -0 -0 -0 -0
0 0 0 0 0 0 0 0 0 0 0 0 0 0 0 0 0 0 0 0 0 0 0 0 -0 -0 -0 -0 -0 -0 -0 0 0 0 0 0 0 0 0 0 0 -0 -0 -0
0 0 0 0 0 0 0 0 0 0 0 0 0 0 0 0 0 0 0 0 0 0 0 0 -0 -0 0 0 0 0 0 0 0 0 0 0 0 0 0 0 0 0 -0 -0
0 0 0 0 0 0 0 0 0 0 0 0 0 0 0 0 0 0 0 0 0 0 0 0 0 0 0 0 0 0 0 0 0 0 0 0 0 0 0 0 0 0 0 0
0 0 0 0 0 0 0 0 0 0 0 0 0 0 0 0 0 0 0 0 0 0 0 0 0 0 0 0 0 0 0 0 0 0 0 0 0 0 0 0 0 0 0 0
0 0 0 0 0 0 0 0 0 0 0 0 0 0 0 0 0 0 0 0 0 0 0 0 0 0 0 0 0 0 0 0 0 0 0 0 0 0 0 0 0 0 0 0
0 0 0 0 0 0 0 0 0 0 0 0 0 0 0 0 0 0 0 0 0 0 0 0 0 0 0 0 0 0 0 0 0 0 0 0 0 0 0 0 0 0 0 0
0 0 0 0 0 0 0 0 0 0 0 0 0 0 0 0 0 0 0 0 0 0 0 0 0 0 0 0 0 0 0 0 0 0 0 0 0 0 0 0 0 0 0 0
0 0 0 0 0 0 0 0 0 0 0 0 0 0 0 0 0 0 0 0 0 0 0 0 0 0 0 0 0 0 0 0 0 0 0 0 0 0 0 0 0 0 0 0
0 0 0 0 0 0 0 0 0 0 0 0 0 0 0 0 0 0 0 0 0 0 0 0 0 0 0 0 0 0 0 0 0 0 0 0 0 0 0 0 0 0 0 0
0 0 0 0 0 0 0 0 0 0 0 0 0 0 0 0 0 0 0 0 0 0 0 0 0 0 0 0 0 0 0 0 0 0 0 0 0 0 0 0 0 0 0 0
Wind_Speed_500mb
21 17 21 31 32 41 44 43 48 42 41 44 46 46 42 58 66 63 50 34 21 14 16 31 35 39 36 31 22 10 5 14 22 31 38 45 52 60 66 73 77 80 86 87
7 23 30 30 33 28 34 44 46 40 33 26 39 46 50 44 37 24 21 16 8 26 38 39 45 48 48 42 38 32 24 16 9 12 24 32 34 40 49 51 61 71 79 87
33 30 30 20 26 32 40 40 46 49 38 38 36 36 14 16 25 33 36 38 41 47 41 43 47 47 44 45 43 37 31 23 16 10 12 20 30 41 46 48 57 64 72 80
23 10 10 22 28 32 39 30 27 28 22 17 13 16 33 30 6 30 46 45 47 45 43 42 44 49 50 49 44 39 35 28 21 17 14 14 20 25 28 30 45 52 60 64
4 1 2 13 23 18 24 13 21 21 23 30 27 16 8 8 20 25 34 40 40 40 41 41 42 44 48 48 49 44 41 35 30 25 21 18 19 25 28 25 34 51 56 58
27 8 11 15 9 13 11 19 27 30 14 16 28 30 10 9 15 30 26 31 36 37 36 37 36 40 50 50 46 44 45 44 43 36 29 25 23 26 30 33 31 44 55 53
11 22 16 9 12 11 12 14 15 10 12 13 13 14 22 9 19 26 24 25 28 28 30 34 37 37 40 44 45 45 43 39 37 40 43 45 40 34 32 31 32 36 47 54
11 18 18 23 16 13 18 22 13 11 20 31 27 15 12 19 33 29 29 25 24 29 30 31 29 29 33 37 39 38 38 38 44 47 40 37 39 47 47 42 41 40 41 44
8 15 6 14 16 4 5 15 22 13 7 11 19 30 17 28 25 23 18 19 23 24 27 30 30 35 43 40 40 41 42 43 48 48 50 48 50 47 45 47 48 47 46 50
7 22 10 8 3 16 11 9 7 5 13 30 27 24 21 24 16 11 16 23 29 35 39 41 41 42 39 39 42 41 42 46 51 53 54 59 54 50 47 47 49 50 54 55
11 10 28 19 14 24 9 10 9 4 9 12 19 18 11 16 14 14 17 18 21 25 30 31 33 35 37 37 41 43 48 52 55 60 63 60 58 55 52 52 52 52 52 53
5 4 12 29 31 27 16 25 25 12 11 16 26 35 9 20 19 14 7 13 18 18 20 24 28 31 37 45 49 53 57 59 59 58 59 60 61 62 62 58 57 58 57 53
10 4 9 16 3 5 9 12 8 16 3 31 30 25 16 27 21 15 7 9 13 16 15 19 23 29 32 35 41 44 47 50 55 56 57 60 63 66 67 69 72 67 63 60
7 7 19 26 34 24 17 24 30 29 10 26 29 40 38 38 33 17 2 8 14 19 20 21 26 28 29 30 33 41 47 49 52 55 56 60 64 68 70 73 75 75 74 71
6 17 21 33 38 38 33 33 44 43 42 37 44 44 44 40 35 13 11 14 18 23 23 25 27 29 32 33 34 38 46 49 53 59 62 66 72 74 77 75 76 80 78 75
2 17 11 22 27 32 36 45 44 42 43 47 48 52 46 19 7 15 18 23 30 34 34 33 32 32 32 32 36 41 49 55 58 63 68 71 75 80 85 88 88 83 82 83
7 10 11 32 27 25 21 36 42 48 48 48 44 25 8 4 9 18 29 33 42 42 44 43 42 43 42 39 40 43 48 56 70 78 79 81 82 84 85 87 90 95 96 96
21 14 11 17 9 28 24 13 22 32 31 12 8 10 11 3 21 36 38 42 42 48 50 51 54 59 54 48 47 46 49 62 63 80 89 89 86 85 87 90 93 94 99 105
36 24 13 12 20 32 41 28 22 16 20 14 16 16 15 12 37 46 35 40 42 45 51 55 63 64 57 63 59 73 82 73 68 68 72 83 84 91 98 102 101 101 102 106
12 24 18 9 14 19 12 5 5 5 20 17 13 16 16 29 21 25 47 46 49 51 54 60 65 66 69 73 88 90 90 84 81 77 74 72 78 86 99 110 117 121 123 121
6 8 27 28 25 19 5 10 6 13 12 20 18 16 33 23 36 51 48 52 51 54 54 55 54 64 83 94 85 92 92 87 77 74 84 91 85 82 87 95 104 107 118 130
14 11 12 10 18 28 7 15 12 5 15 13 34 47 43 46 45 44 48 50 51 48 51 64 77 89 96 95 91 99 102 96 94 89 88 88 91 93 95 95 99 96 93 99
13 20 11 16 11 11 25 21 30 36 41 57 56 49 44 43 44 45 38 37 49 60 70 77 81 90 95 100 87 97 108 102 104 108 110 100 91 89 88 88 90 92 90 86
26 47 21 25 29 46 59 63 60 61 61 58 55 48 45 34 35 46 49 49 51 61 68 74 83 95 110 108 101 95 100 101 103 106 104 97 91 91 87 83 80 82 86 87
29 14 25 26 39 55 59 63 60 58 57 51 46 51 45 35 41 42 48 52 52 58 67 73 88 98 104 101 100 99 100 98 97 91 89 86 84 79 79 78 78 78 81 81
52 41 25 30 53 48 51 56 49 53 48 44 49 40 38 39 41 44 48 51 55 61 70 80 84 86 92 94 97 97 92 88 87 86 82 80 83 85 84 84 85 76 75 77
Wind_Direction_500mb
194 220 221 246 246 259 280 286 283 284 290 291 289 297 301 292 281 287 289 301 317 19 49 70 53 56 60 51 53 40 293 279 263 253 247 248 247 252 252 252 250 250 251 249
190 241 253 270 275 291 282 280 283 286 291 296 295 293 289 286 276 301 327 338 43 102 85 56 52 58 60 61 59 51 50 42 13 273 269 260 260 259 259 262 261 254 253 253
254 278 313 285 265 269 266 275 286 295 307 298 290 281 228 315 301 69 71 82 96 83 67 55 44 45 55 54 53 54 52 43 36 2 305 284 272 260 266 270 269 264 260 257
265 316 275 273 265 269 280 305 308 304 308 296 23 289 302 273 8 94 81 80 73 62 53 48 53 52 50 50 47 45 42 44 44 31 6 319 287 278 280 284 277 277 272 268
284 22 293 269 270 277 283 334 306 296 278 286 273 246 254 292 144 104 79 78 71 64 59 48 40 44 48 46 43 40 34 34 34 37 33 10 333 312 310 287 273 283 282 280
257 252 266 248 301 240 312 286 278 257 273 261 258 230 289 118 125 108 78 67 66 59 55 54 45 35 36 38 39 34 30 30 28 27 29 18 357 346 335 325 301 283 286 285
224 248 202 223 260 196 243 279 315 278 211 257 78 328 251 30 89 116 110 83 68 60 48 35 29 29 25 25 22 18 16 18 17 12 11 8 1 354 343 329 314 299 291 284
263 278 184 171 217 288 276 260 247 285 292 297 304 262 240 82 110 104 98 84 60 45 37 34 33 31 27 23 19 16 12 7 4 8 8 3 356 356 352 338 321 303 289 282
225 248 205 202 244 251 105 218 250 246 278 269 252 262 142 128 126 114 93 68 49 43 36 27 21 19 20 14 14 10 7 2 3 3 2 1 359 354 349 345 342 329 306 298
316 290 262 63 120 224 243 352 211 145 242 257 260 248 264 206 147 86 50 38 22 10 12 12 12 9 9 5 2 0 360 359 358 357 357 359 356 353 348 342 340 338 334 327
305 253 272 282 221 267 215 236 212 342 236 247 259 252 115 90 83 58 32 18 6 2 10 5 3 4 1 358 359 356 354 355 353 352 352 349 346 346 345 343 339 335 334 332
205 174 266 256 276 282 263 268 252 243 231 237 261 258 144 109 95 73 33 351 350 357 0 2 357 357 355 353 349 349 347 347 347 346 343 342 339 338 338 338 338 336 333 329
18 245 284 295 4 36 262 345 315 323 238 256 270 271 62 128 112 59 10 336 317 324 325 339 346 349 347 344 342 340 339 336 334 333 330 330 330 331 331 332 333 332 331 328
73 251 240 259 281 327 282 285 278 276 254 286 274 285 289 288 312 14 257 314 327 307 297 317 326 327 330 330 327 328 328 327 323 322 323 323 322 323 323 324 324 325 327 327
262 261 257 263 277 292 293 284 270 267 269 264 277 284 283 290 315 336 304 310 316 325 298 290 305 307 309 311 310 312 315 318 317 315 315 316 315 315 314 314 315 317 320 323
178 265 298 271 269 273 275 266 264 266 264 261 265 268 272 308 315 302 316 322 315 313 317 302 293 302 303 292 291 295 305 310 310 309 307 305 304 305 307 310 311 311 312 314
235 257 268 268 289 310 281 257 259 263 266 269 271 300 65 150 310 321 323 321 313 311 316 316 304 299 302 298 296 291 291 300 306 306 306 304 302 300 299 300 302 305 308 309
245 223 249 276 302 258 261 317 285 278 284 300 239 160 156 161 320 312 315 308 307 315 311 309 306 304 298 297 301 299 288 287 287 300 305 305 303 298 295 294 295 297 300 302
234 247 256 247 242 280 295 291 261 245 279 196 223 186 195 303 319 295 304 312 308 305 308 306 307 304 296 298 306 307 306 303 298 293 291 300 300 298 298 296 294 292 293 293
231 236 228 182 245 261 325 105 114 115 270 191 169 193 232 304 294 295 313 307 301 301 303 307 306 295 296 299 306 308 307 304 301 299 293 289 287 286 288 293 294 293 292 290
169 216 225 235 243 262 315 130 142 254 292 146 171 241 283 276 275 291 299 299 300 302 304 306 297 291 296 304 306 303 304 301 301 295 291 291 288 283 281 282 286 288 288 289
210 214 216 239 255 263 126 142 223 277 167 233 288 304 287 286 285 291 297 298 300 301 301 297 298 300 302 305 306 304 302 303 299 295 292 288 286 284 283 283 283 283 282 282
240 234 262 216 230 224 189 240 249 268 285 290 294 292 293 288 285 294 295 292 294 298 299 302 302 303 306 308 307 303 304 302 301 300 298 296 293 289 287 286 285 284 283 279
253 252 247 256 253 264 272 274 275 279 283 284 289 289 281 277 284 285 293 297 298 299 301 302 303 306 307 310 310 307 307 308 305 304 304 304 302 300 296 291 285 281 279 278
244 273 244 256 258 265 265 267 271 276 280 282 278 277 276 275 282 290 293 297 299 300 302 305 308 309 309 313 313 313 312 312 311 309 307 306 304 301 297 291 287 283 280 277
245 247 249 253 256 264 271 283 290 289 282 273 267 271 277 283 288 293 295 299 301 303 308 311 311 312 314 315 315 317 318 316 311 306 303 301 301 300 297 294 292 291 286 284
Wind_Speed_850mb
21 17 21 31 32 41 44 43 48 42 41 44 46 46 42 58 66 63 50 34 21 14 16 31 35 39 36 31 22 10 5 14 22 31 38 45 52 60 66 73 77 80 86 87
7 23 30 30 33 28 34 44 46 40 33 26 39 46 50 44 37 24 21 16 8 26 38 39 45 48 48 42 38 32 24 16 9 12 24 32 34 40 49 51 61 71 79 87
33 30 30 20 26 32 40 40 46 49 38 38 36 36 14 16 25 33 36 38 41 47 41 43 47 47 44 45 43 37 31 23 16 10 12 20 30 41 46 48 57 64 72 80
23 10 10 22 28 32 39 30 27 28 22 17 13 16 33 30 6 30 46 45 47 45 43 42 44 49 50 49 44 39 35 28 21 17 14 14 20 25 28 30 45 52 60 64
4 1 2 13 23 18 24 13 21 21 23 30 27 16 8 8 20 25 34 40 40 40 41 41 42 44 48 48 49 44 41 35 30 25 21 18 19 25 28 25 34 51 56 58
27 8 11 15 9 13 11 19 27 30 14 16 28 30 10 9 15 30 26 31 36 37 36 37 36 40 50 50 46 44 45 44 43 36 29 25 23 26 30 33 31 44 55 53
11 22 16 9 12 11 12 14 15 10 12 13 13 14 22 9 19 26 24 25 28 28 30 34 37 37 40 44 45 45 43 39 37 40 43 45 40 34 32 31 32 36 47 54
11 18 18 23 16 13 18 22 13 11 20 31 27 15 12 19 33 29 29 25 24 29 30 31 29 29 33 37 39 38 38 38 44 47 40 37 39 47 47 42 41 40 41 44
8 15 6 14 16 4 5 15 22 13 7 11 19 30 17 28 25 23 18 19 23 24 27 30 30 35 43 40 40 41 42 43 48 48 50 48 50 47 45 47 48 47 46 50
7 22 10 8 3 16 11 9 7 5 13 30 27 24 21 24 16 11 16 23 29 35 39 41 41 42 39 39 42 41 42 46 51 53 54 59 54 50 47 47 49 50 54 55
11 10 28 19 14 24 9 10 9 4 9 12 19 18 11 16 14 14 17 18 21 25 30 31 33 35 37 37 41 43 48 52 55 60 63 60 58 55 52 52 52 52 52 53
5 4 12 29 31 27 16 25 25 12 11 16 26 35 9 20 19 14 7 13 18 18 20 24 28 31 37 45 49 53 57 59 59 58 59 60 61 62 62 58 57 58 57 53
10 4 9 16 3 5 9 12 8 16 3 31 30 25 16 27 21 15 7 9 13 16 15 19 23 29 32 35 41 44 47 50 55 56 57 60 63 66 67 69 72 67 63 60
7 7 19 26 34 24 17 24 30 29 10 26 29 40 38 38 33 17 2 8 14 19 20 21 26 28 29 30 33 41 47 49 52 55 56 60 64 68 70 73 75 75 74 71
6 17 21 33 38 38 33 33 44 43 42 37 44 44 44 40 35 13 11 14 18 23 23 25 27 29 32 33 34 38 46 49 53 59 62 66 72 74 77 75 76 80 78 75
2 17 11 22 27 32 36 45 44 42 43 47 48 52 46 19 7 15 18 23 30 34 34 33 32 32 32 32 36 41 49 55 58 63 68 71 75 80 85 88 88 83 82 83
7 10 11 32 27 25 21 36 42 48 48 48 44 25 8 4 9 18 29 33 42 42 44 43 42 43 42 39 40 43 48 56 70 78 79 81 82 84 85 87 90 95 96 96
21 14 11 17 9 28 24 13 22 32 31 12 8 10 11 3 21 36 38 42 42 48 50 51 54 59 54 48 47 46 49 62 63 80 89 89 86 85 87 90 93 94 99 105
36 24 13 12 20 32 41 28 22 16 20 14 16 16 15 12 37 46 35 40 42 45 51 55 63 64 57 63 59 73 82 73 68 68 72 83 84 91 98 102 101 101 102 106
12 24 18 9 14 19 12 5 5 5 20 17 13 16 16 29 21 25 47 46 49 51 54 60 65 66 69 73 88 90 90 84 81 77 74 72 78 86 99 110 117 121 123 121
6 8 27 28 25 19 5 10 6 13 12 20 18 16 33 23 36 51 48 52 51 54 54 55 54 64 83 94 85 92 92 87 77 74 84 91 85 82 87 95 104 107 118 130
14 11 12 10 18 28 7 15 12 5 15 13 34 47 43 46 45 44 48 50 51 48 51 64 77 89 96 95 91 99 102 96 94 89 88 88 91 93 95 95 99 96 93 99
13 20 11 16 11 11 25 21 30 36 41 57 56 49 44 43 44 45 38 37 49 60 70 77 81 90 95 100 87 97 108 102 104 108 110 100 91 89 88 88 90 92 90 86
26 47 21 25 29 46 59 63 60 61 61 58 55 48 45 34 35 46 49 49 51 61 68 74 83 95 110 108 101 95 100 101 103 106 104 97 91 91 87 83 80 82 86 87
29 14 25 26 39 55 59 63 60 58 57 51 46 51 45 35 41 42 48 52 52 58 67 73 88 98 104 101 100 99 100 98 97 91 89 86 84 79 79 78 78 78 81 81
52 41 25 30 53 48 51 56 49 53 48 44 49 40 38 39 41 44 48 51 55 61 70 80 84 86 92 94 97 97 92 88 87 86 82 80 83 85 84 84 85 76 75 77
Wind_Direction_850mb
194 220 221 246 246 259 280 286 283 284 290 291 289 297 301 292 281 287 289 301 317 19 49 70 53 56 60 51 53 40 293 279 263 253 247 248 247 252 252 252 250 250 251 249
190 241 253 270 275 291 282 280 283 286 291 296 295 293 289 286 276 301 327 338 43 102 85 56 52 58 60 61 59 51 50 42 13 273 269 260 260 259 259 262 261 254 253 253
254 278 313 285 265 269 266 275 286 295 307 298 290 281 228 315 301 69 71 82 96 83 67 55 44 45 55 54 53 54 52 43 36 2 305 284 272 260 266 270 269 264 260 257
265 316 275 273 265 269 280 305 308 304 308 296 23 289 302 273 8 94 81 80 73 62 53 48 53 52 50 50 47 45 42 44 44 31 6 319 287 278 280 284 277 277 272 268
284 22 293 269 270 277 283 334 306 296 278 286 273 246 254 292 144 104 79 78 71 64 59 48 40 44 48 46 43 40 34 34 34 37 33 10 333 312 310 287 273 283 282 280
257 252 266 248 301 240 312 286 278 257 273 261 258 230 289 118 125 108 78 67 66 59 55 54 45 35 36 38 39 34 30 30 28 27 29 18 357 346 335 325 301 283 286 285
224 248 202 223 260 196 243 279 315 278 211 257 78 328 251 30 89 116 110 83 68 60 48 35 29 29 25 25 22 18 16 18 17 12 11 8 1 354 343 329 314 299 291 284
263 278 184 171 217 288 276 260 247 285 292 297 304 262 240 82 110 104 98 84 60 45 37 34 33 31 27 23 19 16 12 7 4 8 8 3 356 356 352 338 321 303 289 282
225 248 205 202 244 251 105 218 250 246 278 269 252 262 142 128 126 114 93 68 49 43 36 27 21 19 20 14 14 10 7 2 3 3 2 1 359 354 349 345 342 329 306 298
316 290 262 63 120 224 243 352 211 145 242 257 260 248 264 206 147 86 50 38 22 10 12 12 12 9 9 5 2 0 360 359 358 357 357 359 356 353 348 342 340 338 334 327
305 253 272 282 221 267 215 236 212 342 236 247 259 252 115 90 83 58 32 18 6 2 10 5 3 4 1 358 359 356 354 355 353 352 352 349 346 346 345 343 339 335 334 332
205 174 266 256 276 282 263 268 252 243 231 237 261 258 144 109 95 73 33 351 350 357 0 2 357 357 355 353 349 349 347 347 347 346 343 342 339 338 338 338 338 336 333 329
18 245 284 295 4 36 262 345 315 323 238 256 270 271 62 128 112 59 10 336 317 324 325 339 346 349 347 344 342 340 339 336 334 333 330 330 330 331 331 332 333 332 331 328
73 251 240 259 281 327 282 285 278 276 254 286 274 285 289 288 312 14 257 314 327 307 297 317 326 327 330 330 327 328 328 327 323 322 323 323 322 323 323 324 324 325 327 327
262 261 257 263 277 292 293 284 270 267 269 264 277 284 283 290 315 336 304 310 316 325 298 290 305 307 309 311 310 312 315 318 317 315 315 316 315 315 314 314 315 317 320 323
178 265 298 271 269 273 275 266 264 266 264 261 265 268 272 308 315 302 316 322 315 313 317 302 293 302 303 292 291 295 305 310 310 309 307 305 304 305 307 310 311 311 312 314
235 257 268 268 289 310 281 257 259 263 266 269 271 300 65 150 310 321 323 321 313 311 316 316 304 299 302 298 296 291 291 300 306 306 306 304 302 300 299 300 302 305 308 309
245 223 249 276 302 258 261 317 285 278 284 300 239 160 156 161 320 312 315 308 307 315 311 309 306 304 298 297 301 299 288 287 287 300 305 305 303 298 295 294 295 297 300 302
234 247 256 247 242 280 295 291 261 245 279 196 223 186 195 303 319 295 304 312 308 305 308 306 307 304 296 298 306 307 306 303 298 293 291 300 300 298 298 296 294 292 293 293
231 236 228 182 245 261 325 105 114 115 270 191 169 193 232 304 294 295 313 307 301 301 303 307 306 295 296 299 306 308 307 304 301 299 293 289 287 286 288 293 294 293 292 290
169 216 225 235 243 262 315 130 142 254 292 146 171 241 283 276 275 291 299 299 300 302 304 306 297 291 296 304 306 303 304 301 301 295 291 291 288 283 281 282 286 288 288 289
210 214 216 239 255 263 126 142 223 277 167 233 288 304 287 286 285 291 297 298 300 301 301 297 298 300 302 305 306 304 302 303 299 295 292 288 286 284 283 283 283 283 282 282
240 234 262 216 230 224 189 240 249 268 285 290 294 292 293 288 285 294 295 292 294 298 299 302 302 303 306 308 307 303 304 302 301 300 298 296 293 289 287 286 285 284 283 279
253 252 247 256 253 264 272 274 275 279 283 284 289 289 281 277 284 285 293 297 298 299 301 302 303 306 307 310 310 307 307 308 305 304 304 304 302 300 296 291 285 281 279 278
244 273 244 256 258 265 265 267 271 276 280 282 278 277 276 275 282 290 293 297 299 300 302 305 308 309 309 313 313 313 312 312 311 309 307 306 304 301 297 291 287 283 280 277
245 247 249 253 256 264 271 283 290 289 282 273 267 271 277 283 288 293 295 299 301 303 308 311 311 312 314 315 315 317 318 316 311 306 303 301 301 300 297 294 292 291 286 284